JD,Date,Time,Lat,Long,"xCO2,w","xCO2,a",Eq Temp,Pressure,SST (TSG),Sal (TSG),"f(CO2)w, equil","f(CO2)w, in situ",f(CO2)a,?fCO2,
,,,,,,,,,,,,,,,
193.470,7/12/95,11:16:17,-3.82,55.50,373.46,359.49,27.37,1008.97,27.19,35.21,357.80,355.31,344.17,11.14,
193.473,7/12/95,11:20:46,-3.81,55.50,373.15,359.49,27.37,1008.95,27.20,35.22,357.49,355.16,344.17,10.99,
193.476,7/12/95,11:25:17,-3.79,55.50,373.65,359.49,27.40,1008.82,27.20,35.22,357.92,355.19,344.17,11.02,
193.479,7/12/95,11:29:47,-3.77,55.50,374.87,359.49,27.42,1008.68,27.23,35.22,359.01,356.42,344.17,12.25,
193.490,7/12/95,11:46:17,-3.70,55.49,386.22,359.49,27.62,1008.73,27.39,35.28,369.78,366.56,344.17,22.39,
193.494,7/12/95,11:50:47,-3.70,55.49,388.02,359.49,27.62,1008.72,27.37,35.29,371.51,368.08,344.17,23.91,
193.497,7/12/95,11:55:17,-3.68,55.49,392.76,359.49,27.60,1008.62,27.32,35.30,376.06,372.16,344.17,27.99,
193.500,7/12/95,11:59:47,-3.67,55.49,391.53,359.49,27.59,1008.57,27.31,35.29,374.86,370.98,344.17,26.81,
193.511,7/12/95,12:16:05,-3.61,55.48,385.09,359.46,27.52,1008.63,27.33,35.27,368.71,365.95,344.22,21.73,
193.514,7/12/95,12:20:47,-3.60,55.47,384.74,359.46,27.51,1008.72,27.34,35.28,368.40,366.02,344.22,21.79,
193.518,7/12/95,12:25:17,-3.58,55.46,383.55,359.46,27.51,1008.84,27.32,35.29,367.31,364.73,344.22,20.50,
193.521,7/12/95,12:29:47,-3.57,55.46,383.20,359.46,27.51,1008.65,27.33,35.28,366.91,364.40,344.22,20.18,
193.532,7/12/95,12:46:17,-3.50,55.43,386.73,359.46,27.45,1008.59,27.26,35.30,370.31,367.73,344.22,23.50,
193.535,7/12/95,12:50:47,-3.49,55.42,387.01,359.46,27.46,1008.81,27.27,35.30,370.66,367.97,344.22,23.75,
193.538,7/12/95,12:55:17,-3.47,55.43,386.98,359.46,27.45,1008.71,27.28,35.31,370.59,368.14,344.22,23.92
193.542,7/12/95,12:59:47,-3.46,55.41,386.82,359.46,27.43,1008.77,27.26,35.32,370.47,368.13,344.22,23.90
193.553,7/12/95,13:16:05,-3.41,55.39,386.61,359.39,27.32,1008.99,27.16,35.31,370.43,368.11,344.46,23.64
193.556,7/12/95,13:20:47,-3.39,55.39,386.27,359.39,27.29,1008.81,27.13,35.31,370.06,367.71,344.46,23.24
193.559,7/12/95,13:25:17,-3.37,55.38,386.17,359.39,27.28,1008.78,27.10,35.30,369.98,367.43,344.46,22.96
193.562,7/12/95,13:29:47,-3.35,55.37,385.95,359.39,27.26,1008.85,27.08,35.29,369.80,367.25,344.46,22.79
193.574,7/12/95,13:46:18,-3.30,55.36,385.92,359.39,27.19,1009.03,27.00,35.28,369.90,367.32,344.46,22.86
193.577,7/12/95,13:50:47,-3.29,55.35,385.79,359.39,27.16,1009.09,26.98,35.27,369.82,367.33,344.46,22.87
193.580,7/12/95,13:55:16,-3.27,55.34,385.60,359.39,27.13,1009.28,26.95,35.27,369.73,367.24,344.46,22.78
193.583,7/12/95,13:59:47,-3.26,55.34,385.45,359.39,27.07,1009.20,26.91,35.27,369.58,367.36,344.46,22.89
193.595,7/12/95,14:16:05,-3.20,55.32,385.58,359.84,26.99,1009.38,26.80,35.24,369.86,367.15,345.36,21.79
193.598,7/12/95,14:20:47,-3.19,55.31,385.23,359.84,26.98,1009.55,26.80,35.23,369.59,366.95,345.36,21.59
193.601,7/12/95,14:25:17,-3.17,55.31,384.98,359.84,26.97,1009.61,26.79,35.23,369.38,366.76,345.36,21.39
193.604,7/12/95,14:29:47,-3.16,55.30,384.82,359.84,26.95,1009.61,26.78,35.22,369.23,366.79,345.36,21.43
193.615,7/12/95,14:46:17,-3.10,55.27,385.14,359.84,26.94,1009.87,26.76,35.22,369.65,367.02,345.36,21.66
193.619,7/12/95,14:50:47,-3.09,55.27,385.52,359.84,26.93,1009.94,26.75,35.22,370.04,367.46,345.36,22.10
193.622,7/12/95,14:55:17,-3.07,55.26,385.45,359.84,26.93,1010.07,26.74,35.22,370.03,367.38,345.36,22.02
193.625,7/12/95,14:59:47,-3.06,55.26,385.52,359.84,26.94,1010.07,26.74,35.22,370.09,367.34,345.36,21.97
193.636,7/12/95,15:16:05,-2.99,55.23,386.26,359.61,26.90,1010.14,26.70,35.22,370.86,368.13,345.33,22.80
193.639,7/12/95,15:20:47,-2.97,55.21,386.54,359.61,26.90,1009.99,26.71,35.22,371.07,368.41,345.33,23.08
193.643,7/12/95,15:25:17,-2.97,55.21,386.89,359.61,26.88,1010.14,26.70,35.22,371.46,368.93,345.33,23.59
193.646,7/12/95,15:29:47,-2.96,55.20,386.79,359.61,26.89,1010.30,26.70,35.22,371.43,368.72,345.33,23.39
193.657,7/12/95,15:46:17,-2.90,55.19,387.11,359.61,26.86,1010.31,26.68,35.23,371.76,369.23,345.33,23.89
193.660,7/12/95,15:50:47,-2.88,55.17,388.12,359.61,26.85,1010.32,26.66,35.23,372.75,370.02,345.33,24.68
193.663,7/12/95,15:55:17,-2.87,55.17,388.15,359.61,26.85,1010.37,26.66,35.23,372.80,370.04,345.33,24.71
193.667,7/12/95,15:59:47,-2.86,55.16,387.93,359.61,26.85,1010.35,26.66,35.23,372.58,369.79,345.33,24.45
193.678,7/12/95,16:16:05,-2.80,55.14,388.30,359.04,26.91,1010.48,26.72,35.22,372.94,370.14,344.88,25.27
193.681,7/12/95,16:20:47,-2.78,55.13,388.37,359.04,26.93,1010.57,26.75,35.22,373.01,370.42,344.88,25.54
193.684,7/12/95,16:25:17,-2.77,55.12,388.37,359.04,26.93,1010.66,26.75,35.23,373.04,370.44,344.88,25.57
193.687,7/12/95,16:29:47,-2.75,55.12,388.34,359.04,26.93,1010.79,26.74,35.23,373.07,370.39,344.88,25.51
193.699,7/12/95,16:46:17,-2.69,55.09,387.92,359.04,26.94,1010.70,26.76,35.23,372.62,370.07,344.88,25.19
193.702,7/12/95,16:50:47,-2.68,55.09,387.70,359.04,26.91,1010.51,26.74,35.23,372.35,369.92,344.88,25.05
193.705,7/12/95,16:55:17,-2.66,55.08,387.58,359.04,26.88,1010.52,26.72,35.23,372.26,369.88,344.88,25.00
193.708,7/12/95,16:59:47,-2.65,55.07,387.10,359.04,26.88,1010.66,26.70,35.23,371.87,369.26,344.88,24.38
193.720,7/12/95,17:16:05,-2.59,55.05,387.01,360.07,26.93,1010.72,26.74,35.23,371.76,369.12,345.94,23.17
193.723,7/12/95,17:20:47,-2.58,55.04,386.66,360.07,26.94,1010.80,26.76,35.23,371.44,368.82,345.94,22.87
193.726,7/12/95,17:25:17,-2.56,55.04,386.85,360.07,26.96,1010.78,26.78,35.23,371.60,369.02,345.94,23.08
193.729,7/12/95,17:29:47,-2.55,55.03,386.94,360.07,26.97,1010.91,26.79,35.23,371.74,369.08,345.94,23.14
193.740,7/12/95,17:46:17,-2.49,55.00,386.47,360.07,27.00,1010.94,26.82,35.24,371.27,368.65,345.94,22.71
193.744,7/12/95,17:50:47,-2.48,55.01,386.25,360.07,27.00,1011.08,26.83,35.24,371.10,368.59,345.94,22.64
193.747,7/12/95,17:55:17,-2.46,54.99,385.99,360.07,27.00,1010.85,26.83,35.24,370.77,368.25,345.94,22.31
193.750,7/12/95,17:59:47,-2.45,54.98,386.34,360.07,27.00,1010.99,26.83,35.24,371.16,368.64,345.94,22.69
193.761,7/12/95,18:16:05,-2.39,54.97,385.49,359.15,26.94,1010.95,26.77,35.25,370.38,367.87,345.17,22.70
193.764,7/12/95,18:20:47,-2.38,54.96,385.37,359.15,26.93,1011.06,26.75,35.24,370.31,367.78,345.17,22.61
193.768,7/12/95,18:25:17,-2.36,54.95,384.58,359.15,26.90,1011.08,26.74,35.23,369.56,367.24,345.17,22.07
193.771,7/12/95,18:29:47,-2.35,54.95,383.67,359.15,26.88,1010.98,26.71,35.23,368.67,366.18,345.17,21.01
193.782,7/12/95,18:46:16,-2.29,54.93,381.65,359.15,26.81,1010.87,26.63,35.21,366.75,364.27,345.17,19.10
193.785,7/12/95,18:50:47,-2.27,54.92,381.09,359.15,26.79,1010.93,26.61,35.20,366.25,363.71,345.17,18.53
193.788,7/12/95,18:55:17,-2.26,54.92,381.02,359.15,26.78,1010.82,26.60,35.19,366.15,363.71,345.17,18.54
193.792,7/12/95,18:59:47,-2.24,54.91,380.90,359.15,26.78,1010.82,26.58,35.19,366.05,363.35,345.17,18.18
193.803,7/12/95,19:16:05,-2.18,54.89,381.34,359.15,26.72,1010.97,26.53,35.19,366.57,363.81,345.27,18.54
193.806,7/12/95,19:20:47,-2.17,54.89,381.34,359.15,26.70,1010.82,26.50,35.19,366.53,363.69,345.27,18.42
193.809,7/12/95,19:25:17,-2.16,54.88,381.06,359.15,26.67,1010.92,26.46,35.18,366.32,363.40,345.27,18.13
193.812,7/12/95,19:29:47,-2.14,54.87,381.06,359.15,26.66,1011.04,26.45,35.17,366.38,363.42,345.27,18.15
193.824,7/12/95,19:46:17,-2.09,54.85,381.06,359.15,26.67,1010.98,26.46,35.14,366.35,363.33,345.27,18.05
193.827,7/12/95,19:50:47,-2.07,54.84,381.28,359.15,26.69,1010.87,26.47,35.11,366.51,363.47,345.27,18.20
193.830,7/12/95,19:55:17,-2.06,54.84,380.99,359.15,26.69,1010.98,26.48,35.15,366.27,363.33,345.27,18.06
193.833,7/12/95,19:59:47,-2.04,54.83,381.06,359.15,26.70,1010.75,26.48,35.15,366.25,363.15,345.27,17.88
193.845,7/12/95,20:16:05,-1.99,54.81,381.76,359.67,26.70,1010.68,26.49,35.16,366.89,363.94,345.57,18.37
193.848,7/12/95,20:20:47,-1.97,54.81,381.76,359.67,26.70,1010.57,26.49,35.17,366.85,363.84,345.57,18.27
193.851,7/12/95,20:25:17,-1.96,54.79,381.76,359.67,26.71,1010.49,26.49,35.16,366.82,363.79,345.57,18.22
193.854,7/12/95,20:29:47,-1.94,54.79,381.69,359.67,26.72,1010.49,26.50,35.16,366.75,363.68,345.57,18.11
193.865,7/12/95,20:46:17,-1.89,54.77,381.91,359.67,26.70,1010.31,26.49,35.17,366.91,363.96,345.57,18.39
193.869,7/12/95,20:50:47,-1.88,54.75,381.98,359.67,26.70,1010.30,26.49,35.17,366.97,363.94,345.57,18.37
193.872,7/12/95,20:55:17,-1.86,54.75,382.32,359.67,26.70,1010.22,26.49,35.17,367.27,364.23,345.57,18.66
193.875,7/12/95,20:59:47,-1.85,54.74,382.54,359.67,26.70,1010.21,26.49,35.17,367.48,364.44,345.57,18.87
193.886,7/12/95,21:16:04,-1.79,54.72,383.34,359.23,26.70,1009.97,26.48,35.17,368.17,364.97,344.90,20.08
193.889,7/12/95,21:20:47,-1.78,54.72,383.28,359.23,26.70,1009.97,26.48,35.17,368.11,364.96,344.90,20.06
193.893,7/12/95,21:25:16,-1.76,54.71,383.41,359.23,26.70,1009.89,26.48,35.17,368.20,365.05,344.90,20.16
193.896,7/12/95,21:29:47,-1.75,54.70,383.78,359.23,26.70,1009.75,26.48,35.17,368.51,365.44,344.90,20.55
193.907,7/12/95,21:46:17,-1.69,54.69,383.97,359.23,26.71,1009.88,26.50,35.17,368.72,365.82,344.90,20.92
193.910,7/12/95,21:50:47,-1.67,54.68,384.07,359.23,26.72,1009.84,26.51,35.17,368.79,365.83,344.90,20.93
193.913,7/12/95,21:55:17,-1.66,54.67,384.35,359.23,26.72,1009.64,26.51,35.17,368.99,366.09,344.90,21.19
193.917,7/12/95,21:59:47,-1.64,54.67,384.48,359.23,26.73,1009.60,26.52,35.17,369.09,366.13,344.90,21.23
193.928,7/12/95,22:16:05,-1.59,54.65,383.91,359.71,26.72,1009.68,26.53,35.18,368.56,365.99,345.32,20.67
193.931,7/12/95,22:20:47,-1.57,54.64,383.85,359.71,26.73,1009.71,26.54,35.18,368.51,365.77,345.32,20.45
193.934,7/12/95,22:25:17,-1.55,54.64,384.07,359.71,26.73,1009.71,26.54,35.18,368.72,366.03,345.32,20.71
193.937,7/12/95,22:29:47,-1.54,54.63,384.04,359.71,26.73,1009.53,26.55,35.18,368.62,366.03,345.32,20.71
193.949,7/12/95,22:46:17,-1.49,54.60,384.42,359.71,26.75,1009.48,26.57,35.18,368.95,366.44,345.32,21.11
193.952,7/12/95,22:50:47,-1.47,54.60,384.48,359.71,26.76,1009.48,26.57,35.18,369.01,366.32,345.32,20.99
193.955,7/12/95,22:55:17,-1.46,54.60,384.38,359.71,26.76,1009.34,26.58,35.18,368.86,366.26,345.32,20.94
193.958,7/12/95,22:59:47,-1.44,54.58,384.48,359.71,26.76,1009.34,26.58,35.18,368.95,366.43,345.32,21.11
193.970,7/12/95,23:16:05,-1.38,54.57,384.74,359.09,26.79,1009.48,26.58,35.18,369.25,366.30,344.61,21.69
193.973,7/12/95,23:20:47,-1.37,54.56,384.55,359.09,26.79,1009.36,26.58,35.18,369.02,366.10,344.61,21.49
193.976,7/12/95,23:25:17,-1.36,54.56,384.58,359.09,26.79,1009.43,26.59,35.18,369.08,366.16,344.61,21.55
193.979,7/12/95,23:29:47,-1.34,54.55,384.46,359.09,26.78,1009.40,26.58,35.19,368.95,366.22,344.61,21.61
193.990,7/12/95,23:46:17,-1.28,54.52,385.34,359.09,26.81,1009.36,26.58,35.19,369.79,366.53,344.61,21.91
193.994,7/12/95,23:50:48,-1.27,54.52,385.56,359.09,26.81,1009.43,26.57,35.19,370.03,366.72,344.61,22.11
193.997,7/12/95,23:55:18,-1.25,54.51,385.53,359.09,26.81,1009.31,26.58,35.18,369.94,366.73,344.61,22.12
194.000,7/12/95,23:59:47,-1.24,54.50,385.31,359.09,26.82,1009.33,26.59,35.19,369.74,366.48,344.61,21.87
194.011,7/13/95,0:16:05,-1.18,54.49,385.87,358.97,26.84,1009.36,26.60,35.19,370.28,366.97,344.44,22.53
194.014,7/13/95,0:20:47,-1.16,54.48,385.96,358.97,26.84,1009.09,26.61,35.19,370.26,367.02,344.44,22.58
194.018,7/13/95,0:25:17,-1.14,54.48,385.93,358.97,26.84,1009.21,26.61,35.19,370.28,367.01,344.44,22.57
194.021,7/13/95,0:29:47,-1.13,54.46,385.87,358.97,26.84,1009.32,26.60,35.19,370.26,366.94,344.44,22.50
194.032,7/13/95,0:46:17,-1.07,54.43,385.68,358.97,26.84,1009.18,26.61,35.19,370.02,366.78,344.44,22.35
194.035,7/13/95,0:50:47,-1.05,54.44,385.90,358.97,26.85,1009.21,26.63,35.19,370.23,367.10,344.44,22.67
194.038,7/13/95,0:55:17,-1.04,54.43,385.87,358.97,26.85,1009.26,26.63,35.19,370.22,367.13,344.44,22.69
194.042,7/13/95,0:59:47,-1.02,54.43,385.62,358.97,26.87,1009.21,26.63,35.19,369.96,366.62,344.44,22.19
194.053,7/13/95,1:16:05,-0.97,54.40,386.07,358.82,26.84,1009.15,26.61,35.19,370.39,367.16,344.30,22.86
194.056,7/13/95,1:20:47,-0.96,54.38,385.97,358.82,26.84,1009.15,26.61,35.19,370.29,367.07,344.30,22.77
194.059,7/13/95,1:25:17,-0.94,54.39,385.78,358.82,26.84,1009.34,26.61,35.19,370.18,366.93,344.30,22.63
194.062,7/13/95,1:29:47,-0.92,54.38,385.78,358.82,26.85,1009.43,26.62,35.19,370.21,366.93,344.30,22.63
194.074,7/13/95,1:46:17,-0.87,54.36,385.21,358.82,26.85,1009.29,26.62,35.19,369.61,366.34,344.30,22.03
194.077,7/13/95,1:50:47,-0.85,54.35,385.21,358.82,26.85,1009.19,26.63,35.19,369.57,366.42,344.30,22.11
194.080,7/13/95,1:55:17,-0.83,54.34,385.02,358.82,26.85,1009.34,26.63,35.20,369.44,366.25,344.30,21.94
194.083,7/13/95,1:59:47,-0.82,54.34,384.90,358.82,26.84,1009.25,26.61,35.20,369.30,366.12,344.30,21.81
194.095,7/13/95,2:16:05,-0.76,54.31,385.39,358.81,26.84,1009.51,26.61,35.20,369.87,366.62,344.42,22.20
194.098,7/13/95,2:20:46,-0.74,54.30,385.48,358.81,26.84,1009.62,26.61,35.20,369.99,366.83,344.42,22.41
194.101,7/13/95,2:25:17,-0.73,54.30,385.42,358.81,26.84,1009.65,26.63,35.19,369.93,366.97,344.42,22.55
194.104,7/13/95,2:29:47,-0.71,54.29,385.23,358.81,26.85,1009.61,26.65,35.20,369.72,366.81,344.42,22.39
194.115,7/13/95,2:46:17,-0.66,54.27,384.92,358.81,26.84,1009.88,26.62,35.20,369.54,366.43,344.42,22.00
194.119,7/13/95,2:50:47,-0.64,54.26,385.04,358.81,26.84,1009.88,26.62,35.20,369.66,366.64,344.42,22.22
194.122,7/13/95,2:55:17,-0.62,54.25,384.95,358.81,26.85,1009.94,26.63,35.20,369.58,366.47,344.42,22.05
194.125,7/13/95,2:59:47,-0.60,54.25,384.66,358.81,26.85,1010.22,26.63,35.20,369.41,366.31,344.42,21.89
194.136,7/13/95,3:16:05,-0.55,54.22,384.59,358.67,26.81,1010.16,26.60,35.20,369.34,366.43,344.55,21.87
194.139,7/13/95,3:20:47,-0.53,54.22,384.40,358.67,26.82,1010.24,26.60,35.20,369.19,366.11,344.55,21.55
194.143,7/13/95,3:25:17,-0.52,54.21,384.43,358.67,26.82,1010.58,26.61,35.20,369.34,366.28,344.55,21.72
194.146,7/13/95,3:29:47,-0.50,54.21,384.37,358.67,26.82,1010.32,26.59,35.21,369.19,365.95,344.55,21.40
194.157,7/13/95,3:46:17,-0.44,54.18,386.29,358.67,26.83,1010.52,26.63,35.20,371.09,368.17,344.55,23.62
194.160,7/13/95,3:50:47,-0.42,54.17,386.13,358.67,26.85,1010.61,26.64,35.20,370.96,368.02,344.55,23.46
194.163,7/13/95,3:55:17,-0.41,54.17,385.85,358.67,26.85,1010.81,26.65,35.20,370.76,367.83,344.55,23.27
194.167,7/13/95,3:59:47,-0.39,54.16,385.63,358.67,26.87,1010.85,26.65,35.20,370.55,367.49,344.55,22.94
194.178,7/13/95,4:16:05,-0.34,54.13,385.31,359.13,26.87,1011.19,26.64,35.21,370.38,367.23,345.28,21.94
194.181,7/13/95,4:20:47,-0.32,54.13,385.16,359.13,26.87,1011.15,26.61,35.22,370.24,366.60,345.28,21.31
194.184,7/13/95,4:25:17,-0.31,54.13,385.22,359.13,26.84,1011.08,26.59,35.21,370.29,366.82,345.28,21.54
194.187,7/13/95,4:29:47,-0.29,54.12,385.44,359.13,26.82,1011.16,26.59,35.21,370.53,367.30,345.28,22.02
194.199,7/13/95,4:46:16,-0.22,54.10,385.63,359.13,26.81,1011.30,26.56,35.20,370.79,367.36,345.28,22.07
194.202,7/13/95,4:50:46,-0.21,54.09,385.66,359.13,26.81,1011.32,26.58,35.20,370.81,367.55,345.28,22.26
194.205,7/13/95,4:55:17,-0.19,54.09,385.60,359.13,26.82,1011.47,26.58,35.20,370.80,367.45,345.28,22.16
194.208,7/13/95,4:59:47,-0.18,54.08,385.57,359.13,26.84,1011.53,26.58,35.20,370.79,367.22,345.28,21.94
194.220,7/13/95,5:16:05,-0.14,54.06,386.52,359.08,26.90,1011.13,26.60,35.21,371.55,367.34,345.26,22.08
194.223,7/13/95,5:20:47,-0.12,54.05,386.99,359.08,26.91,1011.49,26.60,35.21,372.14,367.69,345.26,22.43
194.226,7/13/95,5:25:17,-0.11,54.06,386.77,359.08,26.90,1011.75,26.60,35.21,372.02,367.84,345.26,22.58
194.229,7/13/95,5:29:47,-0.09,54.05,386.17,359.08,26.91,1011.73,26.61,35.20,371.43,367.13,345.26,21.87
194.240,7/13/95,5:46:17,-0.04,54.04,386.55,359.08,26.97,1011.40,26.59,35.21,371.69,366.33,345.26,21.07
194.244,7/13/95,5:50:47,-0.03,54.02,386.64,359.08,26.93,1011.48,26.58,35.21,371.82,366.87,345.26,21.61
194.247,7/13/95,5:55:17,-0.01,54.01,386.36,359.08,26.91,1011.49,26.58,35.21,371.55,366.85,345.26,21.59
194.250,7/13/95,5:59:47,0.01,54.00,385.89,359.08,26.91,1011.41,26.58,35.21,371.07,366.38,345.26,21.12
194.261,7/13/95,6:16:05,0.08,53.99,386.11,359.00,26.88,1011.40,26.56,35.20,371.29,366.68,345.23,21.45
194.264,7/13/95,6:20:47,0.08,53.98,385.92,359.00,26.88,1011.30,26.56,35.21,371.07,366.46,345.23,21.23
194.268,7/13/95,6:25:17,0.11,53.97,385.86,359.00,26.88,1011.09,26.54,35.21,370.95,366.12,345.23,20.90
194.271,7/13/95,6:29:47,0.13,53.97,385.80,359.00,26.88,1011.30,26.54,35.21,370.97,366.11,345.23,20.88
194.282,7/13/95,6:46:17,0.18,53.94,386.40,359.00,26.84,1011.34,26.48,35.21,371.60,366.55,345.23,21.32
194.285,7/13/95,6:50:47,0.19,53.94,386.08,359.00,26.76,1011.33,26.47,35.21,371.30,367.21,345.23,21.98
194.288,7/13/95,6:55:17,0.21,53.93,385.45,359.00,26.72,1011.34,26.44,35.22,370.72,366.84,345.23,21.61
194.292,7/13/95,6:59:47,0.22,53.92,385.26,359.00,26.67,1011.20,26.41,35.21,370.51,366.84,345.23,21.61
194.303,7/13/95,7:16:06,0.29,53.90,384.81,359.06,26.67,1011.15,26.45,35.20,370.03,366.86,345.22,21.64
194.306,7/13/95,7:20:47,0.30,53.89,385.22,359.06,26.73,1011.05,26.45,35.21,370.39,366.36,345.22,21.14
194.309,7/13/95,7:25:16,0.32,53.89,386.14,359.06,26.78,1010.98,26.45,35.20,371.24,366.66,345.22,21.44
194.312,7/13/95,7:29:47,0.33,53.88,386.64,359.06,26.79,1010.94,26.44,35.21,371.72,366.77,345.22,21.55
194.324,7/13/95,7:46:17,0.38,53.86,388.10,359.06,26.78,1010.91,26.39,35.21,373.15,367.67,345.22,22.45
194.327,7/13/95,7:50:47,0.40,53.86,388.45,359.06,26.78,1010.97,26.39,35.21,373.51,367.96,345.22,22.74
194.330,7/13/95,7:55:17,0.43,53.85,388.73,359.06,26.77,1010.80,26.39,35.21,373.72,368.34,345.22,23.12
194.333,7/13/95,7:59:47,0.44,53.84,388.92,359.06,26.78,1010.71,26.39,35.21,373.87,368.39,345.22,23.16
194.345,7/13/95,8:16:05,0.49,53.82,389.20,359.15,26.82,1010.59,26.43,35.21,374.06,368.49,345.08,23.40
194.348,7/13/95,8:20:47,0.50,53.82,388.91,359.15,26.81,1010.48,26.44,35.21,373.73,368.51,345.08,23.43
194.351,7/13/95,8:25:17,0.52,53.80,388.31,359.15,26.78,1010.32,26.44,35.21,373.09,368.37,345.08,23.28
194.354,7/13/95,8:29:47,0.54,53.80,387.77,359.15,26.76,1010.28,26.40,35.22,372.59,367.50,345.08,22.42
194.365,7/13/95,8:46:17,0.60,53.78,389.77,359.15,26.66,1010.16,26.30,35.22,374.55,369.36,345.08,24.28
194.369,7/13/95,8:50:47,0.61,53.77,390.18,359.15,26.64,1010.26,26.27,35.22,375.00,369.66,345.08,24.57
194.372,7/13/95,8:55:17,0.63,53.77,390.92,359.15,26.62,1010.37,26.27,35.22,375.75,370.74,345.08,25.66
194.375,7/13/95,8:59:47,0.65,53.77,391.27,359.15,26.63,1010.12,26.28,35.21,375.98,371.00,345.08,25.91
194.386,7/13/95,9:16:05,0.71,53.75,391.92,359.17,26.66,1009.69,26.31,35.22,376.42,371.51,344.84,26.67
194.389,7/13/95,9:20:47,0.72,53.73,392.08,359.17,26.66,1009.79,26.33,35.22,376.60,371.85,344.84,27.01
194.393,7/13/95,9:25:17,0.74,53.74,392.08,359.17,26.67,1009.50,26.32,35.23,376.50,371.46,344.84,26.62
194.396,7/13/95,9:29:47,0.75,53.73,392.36,359.17,26.67,1009.51,26.31,35.23,376.79,371.62,344.84,26.78
194.407,7/13/95,9:46:17,0.80,53.71,392.87,359.17,26.66,1009.28,26.30,35.23,377.20,372.06,344.84,27.22
194.410,7/13/95,9:50:46,0.83,53.71,392.68,359.17,26.64,1009.01,26.30,35.23,376.91,372.07,344.84,27.23
194.413,7/13/95,9:55:17,0.84,53.70,392.65,359.17,26.66,1009.08,26.31,35.23,376.90,371.98,344.84,27.14
194.417,7/13/95,9:59:47,0.86,53.69,392.71,359.17,26.66,1009.07,26.32,35.23,376.95,372.10,344.84,27.26
194.428,7/13/95,10:16:05,0.91,53.68,392.08,359.13,26.66,1009.07,26.32,35.23,376.35,371.49,344.66,26.83
194.431,7/13/95,10:20:47,0.92,53.66,391.64,359.13,26.66,1008.95,26.31,35.24,375.88,370.95,344.66,26.29
194.434,7/13/95,10:25:17,0.94,53.66,391.83,359.13,26.66,1008.99,26.30,35.24,376.09,370.97,344.66,26.31
194.437,7/13/95,10:29:47,0.95,53.65,391.86,359.13,26.64,1008.69,26.29,35.24,376.01,371.03,344.66,26.37
194.449,7/13/95,10:46:17,1.00,53.62,391.64,359.13,26.63,1008.85,26.29,35.24,375.86,370.97,344.66,26.31
194.452,7/13/95,10:50:47,1.02,53.62,391.35,359.13,26.63,1008.85,26.28,35.24,375.59,370.56,344.66,25.90
194.455,7/13/95,10:55:17,1.03,53.61,391.57,359.13,26.61,1008.74,26.27,35.24,375.77,370.93,344.66,26.26
194.458,7/13/95,10:59:47,1.04,53.61,391.64,359.13,26.61,1008.70,26.27,35.24,375.82,370.93,344.66,26.27
194.470,7/13/95,11:16:05,1.09,53.58,392.59,359.14,26.61,1008.57,26.28,35.24,376.67,371.92,344.52,27.40
194.473,7/13/95,11:20:47,1.10,53.58,392.75,359.14,26.61,1008.67,26.28,35.24,376.86,372.10,344.52,27.58
194.476,7/13/95,11:25:17,1.12,53.58,392.84,359.14,26.61,1008.58,26.30,35.24,376.91,372.40,344.52,27.88
194.479,7/13/95,11:29:47,1.14,53.56,393.10,359.14,26.63,1008.67,26.31,35.24,377.18,372.50,344.52,27.98
194.490,7/13/95,11:46:17,1.18,53.54,393.29,359.14,26.64,1008.51,26.31,35.25,377.30,372.49,344.52,27.97
194.494,7/13/95,11:50:47,1.21,53.53,393.10,359.14,26.63,1008.34,26.31,35.24,377.06,372.43,344.52,27.91
194.497,7/13/95,11:55:17,1.22,53.53,393.03,359.14,26.63,1008.24,26.31,35.24,376.96,372.37,344.52,27.85
194.500,7/13/95,11:59:47,1.23,53.53,392.94,359.14,26.63,1008.44,26.30,35.25,376.94,372.21,344.52,27.69
194.511,7/13/95,12:16:05,1.28,53.50,392.42,359.16,26.60,1008.28,26.27,35.24,376.42,371.68,344.48,27.20
194.514,7/13/95,12:20:46,1.30,53.51,392.81,359.16,26.58,1008.29,26.26,35.24,376.79,372.21,344.48,27.74
194.518,7/13/95,12:25:16,1.31,53.50,392.45,359.16,26.58,1008.26,26.27,35.24,376.44,371.92,344.48,27.45
194.521,7/13/95,12:29:47,1.32,53.49,392.36,359.16,26.58,1008.26,26.28,35.24,376.34,371.94,344.48,27.47
194.532,7/13/95,12:46:17,1.38,53.47,391.97,359.16,26.60,1008.41,26.29,35.24,376.02,371.63,344.48,27.15
194.535,7/13/95,12:50:47,1.39,53.47,391.78,359.16,26.60,1008.50,26.30,35.24,375.86,371.54,344.48,27.06
194.538,7/13/95,12:55:17,1.40,53.46,391.59,359.16,26.61,1008.57,26.30,35.25,375.71,371.19,344.48,26.72
194.542,7/13/95,12:59:47,1.42,53.45,391.69,359.16,26.63,1008.61,26.30,35.24,375.81,371.13,344.48,26.66
194.553,7/13/95,13:16:05,1.47,53.43,391.63,359.10,26.61,1008.68,26.30,35.25,375.78,371.37,344.63,26.74
194.556,7/13/95,13:20:47,1.49,53.44,391.63,359.10,26.61,1008.57,26.29,35.25,375.74,371.15,344.63,26.52
194.559,7/13/95,13:25:17,1.51,53.43,392.17,359.10,26.60,1008.75,26.28,35.25,376.34,371.74,344.63,27.11
194.562,7/13/95,13:29:47,1.52,53.42,392.71,359.10,26.59,1008.59,26.26,35.26,376.81,372.10,344.63,27.47
194.574,7/13/95,13:46:17,1.57,53.41,392.94,359.10,26.55,1008.72,26.23,35.26,377.10,372.41,344.63,27.78
194.577,7/13/95,13:50:47,1.58,53.39,392.65,359.10,26.53,1008.72,26.22,35.26,376.83,372.37,344.63,27.74
194.580,7/13/95,13:55:17,1.59,53.39,392.30,359.10,26.52,1008.79,26.22,35.26,376.53,372.11,344.63,27.48
194.583,7/13/95,13:59:47,1.60,53.39,391.85,359.10,26.51,1008.72,26.21,35.26,376.07,371.80,344.63,27.17
194.595,7/13/95,14:16:05,1.66,53.36,390.87,359.00,26.49,1009.20,26.18,35.26,375.34,370.85,344.79,26.06
194.598,7/13/95,14:20:47,1.67,53.35,390.59,359.00,26.48,1009.01,26.17,35.26,375.00,370.56,344.79,25.77
194.601,7/13/95,14:25:17,1.68,53.36,390.33,359.00,26.47,1009.13,26.14,35.27,374.82,370.06,344.79,25.27
194.604,7/13/95,14:29:47,1.69,53.35,390.01,359.00,26.45,1008.99,26.12,35.27,374.48,369.77,344.79,24.98
194.615,7/13/95,14:46:17,1.74,53.33,385.95,359.00,26.33,1009.23,25.94,35.27,370.80,365.37,344.79,20.58
194.619,7/13/95,14:50:47,1.75,53.32,383.90,359.00,26.26,1009.22,25.89,35.26,368.86,363.74,344.79,18.95
194.622,7/13/95,14:55:17,1.78,53.33,381.47,359.00,26.21,1009.31,25.89,35.25,366.55,362.08,344.79,17.28
194.625,7/13/95,14:59:46,1.79,53.32,380.34,359.00,26.20,1009.27,25.91,35.24,365.44,361.42,344.79,16.63
194.636,7/13/95,15:16:05,1.83,53.30,385.96,358.98,26.23,1009.10,25.95,35.24,370.76,366.75,344.93,21.82
194.639,7/13/95,15:20:47,1.84,53.29,387.77,358.98,26.23,1009.17,25.96,35.24,372.50,368.66,344.93,23.73
194.643,7/13/95,15:25:17,1.86,53.29,389.04,358.98,26.24,1009.44,25.97,35.25,373.81,369.96,344.93,25.04
194.646,7/13/95,15:29:47,1.87,53.28,390.08,358.98,26.26,1009.51,25.98,35.25,374.84,370.90,344.93,25.98